Location: Sternwarte ZA, Rosenfeld-Brittheim
(48.2889°N, 8.6789°E)
Time: 10:18:05
(UTC+01:00)

ISS - Visible Passes

Search period start: 21 January 2021 00:00
Search period end: 31 January 2021 00:00
Orbit: 418 x 419 km, 51.6° (Epoch: 21 January)

Date Brightness Start Highest point End Pass type
(mag) Time Alt. Az. Time Alt. Az. Time Alt. Az.
21 Jan -1.9 17:54:30 10° S 17:56:58 19° SE 17:59:24 10° E visible
21 Jan -2.5 19:30:02 10° WSW 19:32:21 41° WSW 19:32:21 41° WSW visible
22 Jan -3.7 18:42:21 10° SW 18:45:41 63° SSE 18:46:41 39° E visible
22 Jan -0.3 20:19:17 10° W 20:19:38 12° W 20:19:38 12° W visible
23 Jan -3.0 17:54:47 10° SW 17:57:59 42° SSE 18:00:58 12° ENE visible
23 Jan -2.6 19:31:25 10° W 19:33:55 42° WNW 19:33:55 42° WNW visible
24 Jan -3.7 18:43:34 10° WSW 18:46:56 71° NNW 18:48:08 36° ENE visible
24 Jan -0.4 20:20:45 10° WNW 20:21:05 12° WNW 20:21:05 12° WNW visible
25 Jan -3.8 17:55:46 10° WSW 17:59:09 87° SSE 18:02:20 11° ENE visible
25 Jan -2.4 19:32:52 10° WNW 19:35:17 36° NW 19:35:17 36° NW visible
26 Jan -3.2 18:44:58 10° W 18:48:16 49° N 18:49:27 32° NE visible
26 Jan -0.4 20:22:03 10° WNW 20:22:24 12° WNW 20:22:24 12° WNW visible
27 Jan -3.4 17:57:04 10° W 18:00:24 57° NNW 18:03:37 11° ENE visible
27 Jan -2.4 19:34:14 10° WNW 19:36:33 35° NW 19:36:33 35° NW visible
28 Jan -3.2 18:46:21 10° WNW 18:49:37 45° N 18:50:43 32° NE visible
28 Jan -0.4 20:23:15 10° WNW 20:23:40 13° WNW 20:23:40 13° WNW visible
29 Jan -3.2 17:58:26 10° WNW 18:01:42 45° N 18:04:54 10° ENE visible
29 Jan -2.7 19:35:25 10° WNW 19:37:51 42° NW 19:37:51 42° NW visible
30 Jan -3.5 18:47:35 10° WNW 18:50:55 53° NNE 18:52:04 34° ENE visible
30 Jan -0.5 20:24:26 10° WNW 20:25:01 14° WNW 20:25:01 14° WNW visible
